Previsão horária em Jurki

Hoje, 18 Junho, Sexta-feira

Tempo Temperatura Precipitação Vento Pressão Humidade
00:00 +16°C° 0 mm 3 m/s 757 mmHg 84%
01:00 +16°C° 0 mm 3 m/s 757 mmHg 85%
02:00 +16°C° 0 mm 2 m/s 757 mmHg 85%
03:00 +16°C° 0 mm 2 m/s 757 mmHg 86%
04:00 +16°C° 0 mm 2 m/s 757 mmHg 86%
05:00 +18°C° 0 mm 2 m/s 757 mmHg 81%
06:00 +20°C° 0 mm 3 m/s 757 mmHg 77%
07:00 +22°C° 0 mm 3 m/s 757 mmHg 71%
08:00 +25°C° 0 mm 3 m/s 757 mmHg 66%
09:00 +26°C° 0 mm 3 m/s 757 mmHg 61%
10:00 +28°C° 0 mm 4 m/s 757 mmHg 57%
11:00 +28°C° 0 mm 4 m/s 757 mmHg 54%
12:00 +29°C° 0 mm 4 m/s 756 mmHg 52%
13:00 +29°C° 0 mm 4 m/s 756 mmHg 50%
14:00 +29°C° 0 mm 4 m/s 756 mmHg 50%
15:00 +29°C° 0 mm 4 m/s 756 mmHg 51%
16:00 +29°C° 0 mm 3 m/s 756 mmHg 52%
17:00 +27°C° 0 mm 3 m/s 756 mmHg 59%
18:00 +26°C° 0 mm 3 m/s 755 mmHg 66%
19:00 +24°C° 0 mm 2 m/s 755 mmHg 73%
20:00 +22°C° 0 mm 3 m/s 756 mmHg 75%
21:00 +20°C° 0 mm 3 m/s 756 mmHg 76%
22:00 +19°C° 0 mm 3 m/s 756 mmHg 77%
23:00 +18°C° 0 mm 3 m/s 756 mmHg 81%

Amanhã, 19 Junho, Sábado

Tempo Temperatura Precipitação Vento Pressão Humidade
00:00 +18°C° 0 mm 3 m/s 756 mmHg 84%
01:00 +17°C° 0 mm 3 m/s 756 mmHg 88%
02:00 +17°C° 0 mm 2 m/s 756 mmHg 88%
03:00 +17°C° 0 mm 2 m/s 756 mmHg 87%
04:00 +17°C° 0 mm 2 m/s 756 mmHg 87%
05:00 +19°C° 0 mm 3 m/s 756 mmHg 81%
06:00 +21°C° 0 mm 3 m/s 756 mmHg 75%
07:00 +22°C° 0 mm 3 m/s 756 mmHg 69%
08:00 +25°C° 0 mm 3 m/s 755 mmHg 66%
09:00 +26°C° 0 mm 4 m/s 755 mmHg 63%
10:00 +28°C° 0 mm 4 m/s 755 mmHg 60%
11:00 +28°C° 0 mm 4 m/s 755 mmHg 60%
12:00 +29°C° 0 mm 4 m/s 755 mmHg 60%
13:00 +29°C° 0 mm 3 m/s 754 mmHg 60%
14:00 +29°C° 0 mm 3 m/s 754 mmHg 60%
15:00 +29°C° 0 mm 3 m/s 754 mmHg 60%
16:00 +29°C° 0 mm 2 m/s 754 mmHg 60%
17:00 +28°C° 0 mm 3 m/s 754 mmHg 66%
18:00 +26°C° 0 mm 3 m/s 754 mmHg 72%
19:00 +25°C° 0 mm 4 m/s 754 mmHg 78%
20:00 +24°C° 0 mm 3 m/s 754 mmHg 79%
21:00 +22°C° 0 mm 3 m/s 754 mmHg 81%
22:00 +21°C° 0 mm 3 m/s 754 mmHg 83%
23:00 +21°C° 0 mm 3 m/s 754 mmHg 86%

Depois de amanhã, 20 Junho, Domingo

Tempo Temperatura Precipitação Vento Pressão Humidade
00:00 +20°C° 0 mm 3 m/s 754 mmHg 89%
01:00 +19°C° 0 mm 2 m/s 754 mmHg 92%
02:00 +19°C° 0 mm 2 m/s 754 mmHg 92%
03:00 +18°C° 0 mm 2 m/s 753 mmHg 93%
04:00 +18°C° 0 mm 2 m/s 753 mmHg 93%
05:00 +20°C° 0 mm 3 m/s 753 mmHg 87%
06:00 +21°C° 0 mm 3 m/s 753 mmHg 82%
07:00 +23°C° 0 mm 4 m/s 753 mmHg 76%
08:00 +25°C° 0 mm 4 m/s 753 mmHg 70%
09:00 +26°C° 0 mm 4 m/s 753 mmHg 65%
10:00 +28°C° 0 mm 3 m/s 753 mmHg 59%
11:00 +28°C° 0 mm 4 m/s 753 mmHg 56%
12:00 +29°C° 0 mm 4 m/s 752 mmHg 53%
13:00 +30°C° 0 mm 4 m/s 752 mmHg 50%
14:00 +30°C° 0 mm 4 m/s 752 mmHg 51%
15:00 +29°C° 0 mm 4 m/s 751 mmHg 52%
16:00 +29°C° 0 mm 4 m/s 751 mmHg 53%
17:00 +28°C° 0.1 mm 3 m/s 751 mmHg 62%
18:00 +27°C° 0.1 mm 3 m/s 751 mmHg 70%
19:00 +25°C° 0.1 mm 3 m/s 751 mmHg 78%
20:00 +24°C° 0 mm 3 m/s 751 mmHg 82%
21:00 +22°C° 0 mm 3 m/s 751 mmHg 87%
22:00 +21°C° 0 mm 3 m/s 751 mmHg 91%
23:00 +20°C° 0 mm 3 m/s 750 mmHg 92%

21 Junho, Segunda-feira

Tempo Temperatura Precipitação Vento Pressão Humidade
00:00 +20°C° 0 mm 3 m/s 750 mmHg 93%
01:00 +19°C° 0 mm 3 m/s 750 mmHg 93%
02:00 +19°C° 0 mm 3 m/s 750 mmHg 93%
03:00 +19°C° 0 mm 3 m/s 750 mmHg 93%
04:00 +19°C° 0 mm 3 m/s 750 mmHg 93%
05:00 +21°C° 0 mm 3 m/s 750 mmHg 86%
06:00 +22°C° 0 mm 4 m/s 750 mmHg 80%
07:00 +23°C° 0 mm 5 m/s 750 mmHg 73%
08:00 +26°C° 0 mm 5 m/s 749 mmHg 67%
09:00 +27°C° 0 mm 5 m/s 749 mmHg 61%
10:00 +28°C° 0 mm 6 m/s 749 mmHg 55%
11:00 +28°C° 0 mm 6 m/s 749 mmHg 53%
12:00 +29°C° 0 mm 5 m/s 749 mmHg 51%
13:00 +29°C° 0 mm 5 m/s 748 mmHg 49%
14:00 +29°C° 0 mm 5 m/s 748 mmHg 50%
15:00 +29°C° 0 mm 4 m/s 748 mmHg 51%
16:00 +29°C° 0 mm 4 m/s 748 mmHg 52%
17:00 +28°C° 0 mm 4 m/s 747 mmHg 60%
18:00 +26°C° 0 mm 4 m/s 747 mmHg 68%
19:00 +25°C° 0 mm 3 m/s 747 mmHg 76%
20:00 +24°C° 0 mm 3 m/s 747 mmHg 80%
21:00 +22°C° 0 mm 3 m/s 748 mmHg 83%
22:00 +20°C° 0 mm 3 m/s 748 mmHg 87%
23:00 +20°C° 0 mm 3 m/s 748 mmHg 89%

22 Junho, Terça-feira

Tempo Temperatura Precipitação Vento Pressão Humidade
00:00 +20°C° 0 mm 3 m/s 748 mmHg 91%
01:00 +19°C° 0 mm 3 m/s 747 mmHg 93%
02:00 +19°C° 0 mm 3 m/s 748 mmHg 93%
03:00 +19°C° 0 mm 2 m/s 748 mmHg 93%
04:00 +19°C° 0 mm 2 m/s 748 mmHg 94%
05:00 +21°C° 0 mm 3 m/s 748 mmHg 88%
06:00 +22°C° 0 mm 3 m/s 748 mmHg 82%
07:00 +25°C° 0 mm 3 m/s 748 mmHg 77%
08:00 +26°C° 0 mm 3 m/s 748 mmHg 72%
09:00 +27°C° 0 mm 3 m/s 748 mmHg 67%
10:00 +29°C° 0 mm 3 m/s 749 mmHg 63%
11:00 +29°C° 0.6 mm 3 m/s 749 mmHg 61%
12:00 +29°C° 0.6 mm 2 m/s 749 mmHg 59%
13:00 +30°C° 0.6 mm 2 m/s 749 mmHg 58%
14:00 +30°C° 0.4 mm 2 m/s 749 mmHg 60%
15:00 +29°C° 0.4 mm 1 m/s 749 mmHg 62%
16:00 +29°C° 0.4 mm 1 m/s 749 mmHg 64%
17:00 +28°C° 0.6 mm 1 m/s 749 mmHg 70%
18:00 +26°C° 0.6 mm 2 m/s 749 mmHg 77%
19:00 +25°C° 0.6 mm 3 m/s 749 mmHg 83%
20:00 +24°C° 0.2 mm 3 m/s 750 mmHg 87%
21:00 +22°C° 0.2 mm 3 m/s 750 mmHg 92%
22:00 +21°C° 0.2 mm 3 m/s 750 mmHg 96%
23:00 +20°C° 0.1 mm 3 m/s 750 mmHg 97%

23 Junho, Quarta-feira

Tempo Temperatura Precipitação Vento Pressão Humidade
00:00 +20°C° 0.1 mm 3 m/s 750 mmHg 97%
01:00 +19°C° 0.1 mm 3 m/s 750 mmHg 98%
02:00 +19°C° 0 mm 3 m/s 751 mmHg 97%
03:00 +19°C° 0 mm 3 m/s 751 mmHg 97%
04:00 +18°C° 0 mm 3 m/s 751 mmHg 97%
05:00 +20°C° 0.1 mm 3 m/s 751 mmHg 94%
06:00 +21°C° 0.1 mm 3 m/s 751 mmHg 91%
07:00 +22°C° 0.1 mm 3 m/s 752 mmHg 87%
08:00 +24°C° 0 mm 3 m/s 752 mmHg 81%
09:00 +26°C° 0 mm 2 m/s 751 mmHg 74%
10:00 +28°C° 0 mm 2 m/s 751 mmHg 68%
11:00 +28°C° 1.6 mm 2 m/s 751 mmHg 66%
12:00 +29°C° 1.6 mm 2 m/s 752 mmHg 64%
13:00 +29°C° 1.6 mm 2 m/s 752 mmHg 62%
14:00 +29°C° 0.4 mm 2 m/s 752 mmHg 62%
15:00 +29°C° 0.4 mm 2 m/s 752 mmHg 63%
16:00 +29°C° 0.4 mm 2 m/s 751 mmHg 63%
17:00 +28°C° 0.3 mm 3 m/s 752 mmHg 71%
18:00 +26°C° 0.3 mm 3 m/s 752 mmHg 78%
19:00 +25°C° 0.3 mm 3 m/s 752 mmHg 85%
20:00 +24°C° 0.4 mm 3 m/s 752 mmHg 88%
21:00 +21°C° 0.4 mm 3 m/s 752 mmHg 92%
22:00 +20°C° 0.4 mm 3 m/s 752 mmHg 95%
23:00 +20°C° 0.3 mm 3 m/s 752 mmHg 95%
Mostrar mais

Necessitamos do seu Consentimento

A Meteoprog e os seus Fornecedores de Serviços podem armazenar e aceder a dados pessoais como cookies, identificadores do dispositivo ou outras tecnologias semelhantes existentes no seu dispositivo e processar estes dados para personalizar conteúdos e anúncios, assim como funcionalidades nas redes sociais e análise de tráfego.

  • Armazenar e/ou aceder a informações no seu dispositivo

    Os cookies, identificadores do dispositivo ou outras informações podem ser armazenados ou acedidos no seu dispositivo, para os fins acima indicados.

  • Anúncios e conteúdos personalizados, medição de anúncios e conteúdos, dados sobre o público-alvo e desenvolvimento de produtos

    Os anúncios e os conteúdos podem ser personalizados com base num perfil. Podem ser adicionados dados adicionais para uma maior personalização dos anúncios e dos conteúdos. A eficácia dos anúncios e dos conteúdos pode ser medida. Podem ser obtidas informações sobre o público que visualizou os anúncios e os conteúdos. Estes dados podem ser usados para desenvolver ou melhorar sistemas, softwares ou a experiência do utilizador.

Ao clicar em "Eu concordo”, permitirá o uso de cookies, identificadores do dispositivo e web beacons mencionados ou outras tecnologias semelhantes. As configurações do navegador do seu dispositivo podem ser alteradas.

Para certos fins, podem ser invocados interesses legítimos ao invés de consentimento. Pode ler mais informação sobre este assunto na nossa Política de Privacidade e Cookies.